SCP
0 0 0 0 0 0 0 0 0 0 0 0 0 0 0 0 0 0 0 0 0 0 0 0 0 0 0 0 0 0 0 0 0 0 0 0 0 0 0 0 0 0 0 0 0 0 0 0 0
0 0 0 0 0 0 0 0 0 0 0 0 0 0 0 0 0 0 0 0 0 0 0 0 0 0 0 0 0 0 0 0 0 0 0 0 0 0 0 0 0 0 0 0 0 0 0 0 0
0 0 0 0 0 0 0 0 0 0 0 0 0 0 0 0 0 0 0 0 0 0 0 0 0 0 0 0 0 0 0 0 0 0 0 0 0 0 0 0 0 0 0 0 0 0 0 0 0
0 0 0 0 0 0 0 0 0 0 0 0 0 0 0 0 0 0 0 0 0 0 0 0 0 0 0 0 0 0 0 0 0 0 0 0 0 0 0 0 0 0 0 0 0 0 0 0 0
0 0 0 0 0 0 0 0 0 0 0 0 0 0 0 0 0 0 0 0 0 0 0 0 0 0 0 0 0 0 0 0 0 0 0 0 0 0 0 0 0 0 0 0 0 0 0 0 0
0 0 0 0 0 0 0 0 0 0 0 0 0 0 0 0 0 0 0 0 0 0 0 0 0 0 0 0 0 0 0 0 0 0 0 0 0 0 0 0 0 0 0 0 0 0 0 0 0
0 0 0 0 0 0 0 0 0 0 0 0 0 0 0 0 0 0 0 0 0 0 0 0 0 0 0 0 0 0 0 0 0 0 0 0 0 0 0 0 0 0 0 0 0 0 0 0 0
0 0 0 0 0 0 0 0 0 0 0 0 0 0 0 0 0 0 0 0 0 0 0 0 0 0 0 0 0 0 0 0 0 0 0 0 0 0 0 0 0 0 0 0 0 0 0 0 0
0 0 0 0 0 0 0 0 0 0 0 0 0 0 0 0 0 0 0 0 0 0 0 0 0 0 0 0 0 0 0 0 0 0 0 0 0 0 0 0 0 0 0 0 0 0 0 0 0
0 0 0 0 0 0 0 0 0 0 0 0 0 0 0 0 0 0 0 0 0 0 0 0 0 0 0 0 0 0 0 0 0 0 0 0 0 0 0 0 0 0 0 0 0 0 0 0 0
0 0 0 0 0 0 0 0 0 0 0 0 0 0 0 0 0 0 0 0 0 0 0 0 0 0 0 0 0 0 0 0 0 0 0 0 0 0 0 0 0 0 0 0 0 0 0 0 0
0 0 0 0 0 0 0 0 0 0 0 0 0 0 0 0 0 0 0 0 0 0 0 0 0 0 0 0 0 0 0 0 0 0 0 0 0 0 0 0 0 0 0 0 0 0 0 0 0
0 0 0 0 0 0 0 0 0 0 0 0 0 0 0 0 0 0 0 0 0 0 0 0 0 0 0 0 0 0 0 0 0 0 0 0 0 0 0 0 0 0 0 0 0 0 0 0 0
0 0 0 0 0 0 0 0 0 0 0 0 0 0 0 0 0 0 0 0 0 0 0 0 0 0 0 0 0 0 0 0 0 0 0 0 0 0 0 0 0 0 0 0 0 0 0 0 0
0 0 0 0 0 0 0 0 0 0 0 0 0 0 0 0 0 0 0 0 0 0 0 0 0 0 0 0 0 0 0 0 0 0 0 0 0 0 0 0 0 0 0 0 0 0 0 0 0
0 0 0 0 0 0 0 0 0 0 0 0 0 0 0 0 0 0 0 0 0 0 0 0 0 0 0 0 0 0 0 0 0 0 0 0 0 0 0 0 0 0 0 0 0 0 0 0 0
0 0 0 0 0 0 0 0 0 0 0 0 0 0 0 0 0 0 0 0 0 0 0 0 0 0 0 0 0 0 0 0 0 0 0 0 0 0 0 0 0 0 0 0 0 0 0 0 0
0 0 0 0 0 0 0 0 0 0 0 0 0 0 0 0 0 0 0 0 0 0 0 0 0 0 0 0 0 0 0 0 0 0 0 0 0 0 0 0 0 0 0 0 0 0 0 0 0
0 0 0 0 0 0 0 0 0 0 0 0 0 0 0 0 0 0 0 0 0 0 0 0 0 0 0 0 0 0 0 0 0 0 0 0 0 0 0 0 0 0 0 0 0 0 0 0 0
0 0 0 0 0 0 0 0 0 0 0 0 0 0 0 0 0 0 0 0 0 0 0 0 0 0 0 0 0 0 0 0 0 0 0 0 0 0 0 0 0 0 0 0 0 0 0 0 0
0 0 0 0 0 0 0 0 0 0 0 0 0 0 0 0 0 0 0 0 0 0 0 0 0 0 0 0 0 0 0 0 0 0 0 0 0 0 0 0 0 0 0 0 0 0 0 0 0
0 0 0 0 0 0 0 0 0 0 0 0 0 0 0 0 0 0 0 0 0 0 0 0 0 0 0 0 0 0 0 0 0 0 0 0 0 0 0 0 0 0 0 0 0 0 0 0 0
0 0 0 0 0 0 0 0 0 0 0 0 0 0 0 0 0 0 0 0 0 0 0 0 0 0 0 0 0 0 0 0 0 0 0 0 0 0 0 0 0 0 0 0 0 0 0 0 0
0 0 0 0 0 0 0 0 0 0 0 0 0 0 0 0 0 0 0 0 0 0 0 0 0 0 0 0 0 0 0 0 0 0 0 0 0 0 0 0 0 0 0 0 0 0 0 0 0
0 0 0 0 0 0 0 0 0 0 0 0 0 0 0 0 0 0 0 0 0 0 0 0 0 0 0 0 0 0 0 0 0 0 0 0 0 0 0 0 0 0 0 0 0 0 0 0 0
0 0 0 0 0 0 0 0 0 0 0 0 0 0 0 0 0 0 0 0 0 0 0 0 0 0 0 0 0 0 0 0 0 0 0 0 0 0 0 0 0 0 0 0 0 0 0 0 0
0 0 0 0 0 0 0 0 0 0 0 0 0 0 0 0 0 0 0 0 0 0 0 0 0 0 0 0 0 0 0 0 0 0 0 0 0 0 0 0 0 0 0 0 0 0 0 0 0
0 0 0 0 0 0 0 0 0 0 0 0 0 0 0 0 0 0 0 0 0 0 0 0 0 0 0 0 0 0 0 0 0 0 0 0 0 0 0 0 0 0 0 0 0 0 0 0 0
0 0 0 0 0 0 0 0 0 0 0 0 0 0 0 0 0 0 0 0 0 0 0 0 0 0 0 0 0 0 0 0 0 0 0 0 0 0 0 0 0 0 0 0 0 0 0 0 0
0 0 0 0 0 0 0 0 0 0 0 0 0 0 0 0 0 0 0 0 0 0 0 0 0 0 0 0 0 0 0 0 0 0 0 0 0 0 0 0 0 0 0 0 0 0 0 0 0
Wind_Speed
7 4 2 0 3 5 3 2 1 2 3 2 4 6 5 4 2 2 1 2 1 1 1 3 5 5 6 7 7 8 8 9 9 9 9 10 10 10 10 10 10 9 10 10 9 10 10 10 11
4 4 1 2 4 3 3 2 2 2 3 3 4 5 5 4 3 3 1 1 1 1 1 2 5 6 6 7 7 7 7 8 8 8 8 9 9 9 9 9 9 9 9 9 9 9 9 10 10
5 2 1 3 3 2 1 0 3 3 3 2 4 5 4 3 2 2 1 2 2 2 1 2 5 5 5 6 6 7 7 7 7 7 7 7 8 8 8 8 8 8 8 8 9 8 8 9 10
2 1 2 4 3 0 2 3 4 3 3 5 4 5 4 3 2 3 4 4 3 1 1 1 4 4 5 5 6 6 6 6 6 6 6 6 7 7 7 7 7 7 7 7 8 8 8 8 9
1 2 5 4 2 1 1 2 3 3 3 4 4 4 3 3 4 6 5 4 3 1 0 1 3 3 4 4 5 6 5 5 5 5 5 5 6 5 6 7 7 7 7 7 7 7 8 7 8
3 4 4 2 2 2 2 2 4 4 3 3 4 4 2 2 4 4 4 3 2 2 0 1 2 2 3 4 5 5 5 4 5 5 5 4 5 4 5 6 6 6 6 6 7 7 7 7 8
3 3 2 1 1 1 1 2 3 3 4 2 3 4 2 1 2 3 3 2 2 2 1 2 1 0 2 3 4 4 4 4 4 4 4 4 4 3 4 4 5 5 5 5 6 6 7 7 7
2 3 2 0 1 0 2 3 3 4 3 3 4 5 3 3 3 4 3 3 2 2 1 1 2 1 1 0 3 4 4 4 3 3 3 3 2 2 3 3 3 4 4 5 5 5 7 7 7
3 4 1 3 3 2 2 3 2 3 5 3 3 3 4 7 6 5 3 2 1 1 1 1 1 1 1 1 1 2 3 2 2 2 2 2 1 1 1 2 3 4 5 5 5 5 6 6 6
3 2 4 3 4 4 3 3 4 4 4 3 4 5 7 7 6 5 3 2 1 1 1 1 1 1 1 1 1 1 2 1 1 1 1 1 1 0 1 1 1 2 4 5 5 5 5 4 2
3 4 2 0 3 4 4 2 3 6 2 3 6 8 8 6 5 4 3 2 2 1 1 0 0 0 1 1 2 2 1 1 1 1 1 1 1 1 1 1 0 1 1 1 2 2 2 2 2
2 2 2 1 3 4 5 4 3 3 3 5 8 10 8 7 5 4 3 2 1 0 1 0 0 1 1 1 1 1 1 1 1 1 1 1 1 1 1 1 1 1 1 1 1 1 2 3 3
1 1 0 3 4 4 5 4 3 2 4 8 9 9 8 6 4 3 2 2 1 0 0 0 1 1 1 1 1 1 1 1 1 1 0 1 1 1 1 1 1 1 1 1 1 2 2 3 3
1 1 2 3 4 3 5 2 3 2 6 8 8 7 6 6 5 3 2 2 1 1 1 0 1 1 2 1 1 1 1 1 1 1 0 1 1 1 1 1 1 1 1 1 1 2 2 2 2
2 4 4 3 3 2 5 2 1 4 7 7 7 6 5 4 4 4 4 3 3 2 1 1 1 2 2 2 1 1 1 1 1 0 0 1 1 1 1 1 1 1 1 2 2 2 2 2 2
4 4 2 2 2 2 4 2 2 6 8 7 6 5 4 4 4 4 3 3 2 2 1 1 2 2 2 2 1 1 1 1 0 0 0 1 1 2 2 1 1 1 1 2 2 2 2 2 2
5 2 1 2 1 3 3 3 3 6 8 7 6 5 5 4 3 3 3 3 3 3 2 1 1 2 2 2 1 1 1 1 0 0 0 0 1 2 2 2 1 1 1 1 2 2 2 2 1
1 0 1 2 2 3 2 2 3 6 7 7 6 5 5 5 6 5 4 3 3 2 2 2 2 2 2 2 2 1 1 1 0 0 0 1 1 2 2 2 1 2 2 1 1 2 1 1 1
3 2 2 3 1 3 2 2 4 6 6 6 6 5 6 6 5 3 3 3 3 2 2 2 2 2 2 1 1 1 0 0 1 0 0 1 1 2 2 2 2 2 2 2 2 2 2 1 1
3 1 2 2 1 2 1 2 3 6 8 8 8 7 7 5 3 4 4 3 4 3 3 2 2 3 3 2 1 1 1 0 1 1 1 1 1 2 2 2 2 2 2 1 1 2 1 0 1
2 4 3 2 2 3 2 4 2 2 4 4 5 6 6 8 7 6 6 5 4 4 4 4 3 3 3 2 2 2 2 2 2 2 1 1 0 1 2 2 2 2 2 2 2 2 2 1 0
4 4 4 3 3 2 2 3 5 3 3 6 6 6 7 7 7 6 6 6 6 6 4 4 3 3 2 3 3 3 2 1 0 0 1 1 1 0 1 2 2 2 1 2 3 2 2 2 1
3 2 4 3 4 2 2 1 8 1 4 8 9 9 9 8 8 8 8 8 6 6 5 4 3 3 2 3 4 3 2 1 0 1 1 1 1 1 0 1 2 2 2 2 2 2 2 2 2
4 6 7 6 5 1 2 2 7 4 7 6 7 9 8 8 7 7 6 5 4 4 4 4 4 3 3 4 4 4 3 2 1 0 0 1 1 1 1 1 1 2 2 3 3 2 3 2 3
5 6 5 5 4 5 2 2 9 7 6 7 7 8 8 7 7 7 7 7 6 6 6 5 5 4 3 4 4 4 4 3 3 2 1 1 0 1 1 1 1 1 2 2 2 2 3 3 3
4 8 7 4 4 4 2 5 8 5 4 4 4 4 5 6 7 8 8 8 7 7 6 6 6 4 4 4 3 3 3 2 2 2 2 1 1 2 1 0 0 1 1 1 1 1 2 2 2
5 3 5 7 2 1 5 6 8 2 1 1 2 3 5 6 7 7 7 7 7 7 7 7 7 5 4 4 3 3 3 3 2 2 2 1 1 1 0 0 0 1 1 1 1 1 2 2 2
5 8 6 6 5 2 5 4 5 5 4 3 3 4 4 4 5 6 6 7 7 7 6 6 6 6 4 4 3 3 3 3 3 2 2 2 2 1 1 1 1 1 1 1 1 1 2 2 2
4 4 5 4 5 6 3 8 7 8 7 6 6 5 5 5 6 6 6 5 5 5 6 6 5 4 4 4 3 2 2 2 2 2 3 3 2 2 2 2 2 2 2 2 1 2 2 2 2
4 6 8 5 4 4 4 10 6 5 5 5 6 5 5 5 4 5 5 5 5 6 6 6 5 5 4 4 3 3 2 2 2 2 3 3 3 3 3 2 2 3 3 2 2 3 2 3 3
Wind_Direction
161 152 147 82 53 49 27 356 53 48 47 44 71 83 89 72 88 130 292 135 126 124 178 143 133 128 125 122 118 116 116 119 122 127 132 138 141 142 144 144 146 147 150 151 152 154 155 156 156
150 159 160 48 69 56 360 350 61 62 131 119 71 69 70 60 61 100 89 171 112 123 108 132 135 131 127 124 124 122 119 120 122 126 131 139 142 144 148 149 150 150 153 155 156 158 160 161 162
165 186 91 65 74 125 142 359 109 85 87 72 67 56 65 66 90 125 160 133 97 84 80 143 136 132 130 130 130 129 126 128 129 128 129 137 143 147 154 155 156 156 160 164 165 164 165 167 169
154 65 51 60 53 242 175 165 135 116 55 47 80 64 55 47 116 131 126 123 110 80 60 165 138 133 132 135 139 137 135 135 134 133 132 135 144 151 155 158 159 162 168 172 174 170 169 168 168
69 70 51 41 8 357 106 144 127 98 63 53 78 80 41 14 80 107 122 131 135 148 155 181 149 147 140 141 144 145 142 139 140 137 133 133 137 145 154 157 164 168 173 177 179 176 170 168 164
48 59 65 44 15 28 74 99 95 85 87 82 82 87 50 62 93 115 126 132 138 139 87 3 167 160 153 152 150 145 143 139 139 134 132 136 140 148 158 161 167 170 172 176 178 180 174 171 165
81 75 83 106 56 31 125 108 107 108 98 102 109 94 83 97 130 127 113 100 92 80 48 354 349 311 175 162 158 158 147 141 142 142 141 138 144 156 158 162 166 174 176 178 177 179 175 170 168
123 88 52 354 144 234 141 107 103 109 107 111 105 126 166 186 141 109 87 70 56 48 21 343 350 353 331 221 172 169 155 148 143 144 144 135 138 153 168 169 176 177 172 171 171 168 167 169 168
118 71 192 212 178 183 138 110 89 79 100 88 87 135 150 133 119 103 86 60 32 12 338 342 356 355 339 311 179 170 157 139 131 128 123 108 71 85 151 179 187 180 177 174 169 162 164 168 166
106 130 228 215 179 158 136 126 134 97 88 73 74 87 111 122 126 128 132 150 218 275 286 337 359 1 359 359 50 90 111 94 83 78 78 55 55 49 118 167 192 169 177 176 173 168 166 163 153
156 196 233 202 151 135 128 117 113 123 143 181 154 140 136 133 136 148 166 188 215 247 282 235 202 74 51 31 61 69 78 77 77 83 76 71 62 52 42 43 38 98 139 143 157 152 143 140 142
162 252 211 163 128 129 139 129 112 149 195 155 147 145 147 151 160 175 184 200 207 181 288 306 140 125 124 92 83 90 91 83 79 77 88 97 84 67 62 72 53 60 79 86 100 123 137 137 142
153 290 321 136 119 119 110 112 123 129 109 121 129 139 156 164 169 185 189 183 155 188 256 113 131 151 130 109 109 101 101 97 82 52 64 127 128 122 87 71 71 77 91 105 111 126 137 139 143
152 64 42 78 99 110 113 97 98 133 126 129 142 156 168 172 171 174 181 188 193 206 224 188 148 140 116 119 122 113 97 102 83 82 86 120 131 128 112 84 73 79 91 99 108 114 124 134 139
69 58 40 47 75 103 103 54 171 152 139 143 160 168 169 179 177 191 199 199 203 206 195 174 147 117 119 125 127 115 110 110 113 116 99 110 125 122 118 115 108 110 109 103 97 93 92 111 124
42 54 37 319 109 129 124 235 208 151 149 161 173 177 180 195 199 203 200 200 196 186 179 186 134 121 130 125 122 108 114 126 150 138 95 118 137 136 132 133 127 110 102 107 107 109 105 103 110
29 55 325 305 180 147 151 228 188 158 160 174 182 186 188 198 212 212 201 196 185 180 172 161 119 123 128 118 99 96 98 98 101 106 103 178 145 141 138 134 133 115 104 104 124 108 122 121 115
238 230 280 269 239 151 179 228 182 169 172 184 188 193 195 204 217 211 200 190 177 168 158 149 120 117 113 97 78 63 54 37 38 178 196 149 125 123 127 124 123 118 114 104 103 107 101 118 131
164 154 253 269 224 148 203 232 204 178 181 192 198 203 209 218 219 202 194 176 158 153 157 149 139 146 125 104 106 102 41 352 11 39 116 117 118 120 125 136 131 132 137 150 141 129 121 118 126
150 164 265 316 30 123 143 273 225 190 200 200 200 206 211 215 211 202 193 184 178 182 182 166 177 174 164 158 144 132 112 86 64 30 53 72 116 138 142 151 156 149 140 144 151 152 140 162 141
219 190 203 195 42 53 65 337 271 224 201 203 207 208 210 209 208 205 199 198 190 192 193 190 188 180 177 156 107 79 59 41 36 27 24 22 83 127 137 149 159 159 164 185 198 184 177 198 210
243 216 172 135 93 340 66 299 289 240 223 219 217 210 215 217 207 201 199 200 200 201 190 185 181 174 171 150 137 135 133 154 259 311 350 16 37 82 152 158 163 182 195 204 212 194 193 183 215
212 97 114 105 110 39 19 146 289 267 238 240 224 215 214 212 203 201 201 202 199 188 183 182 171 169 162 155 156 149 159 187 146 62 31 17 18 30 66 164 173 193 212 224 230 212 194 195 205
122 70 55 50 67 7 259 170 278 237 223 234 222 216 210 204 196 195 192 184 185 176 174 171 167 176 166 161 162 164 171 174 148 120 48 354 1 6 354 204 201 205 213 220 225 221 213 214 216
90 87 40 9 15 260 262 199 251 253 233 218 216 216 206 193 187 185 179 179 182 178 179 175 173 180 172 167 174 179 182 179 182 195 196 192 301 307 297 266 236 236 233 224 222 222 230 221 218
161 135 152 187 217 274 306 237 258 271 257 222 205 200 184 185 188 190 189 186 186 183 179 176 177 182 176 176 183 182 179 180 193 199 197 205 228 250 269 240 235 267 261 235 208 219 234 220 225
133 149 155 130 142 298 287 287 301 312 314 195 172 166 182 188 187 191 187 183 186 183 181 179 175 175 177 181 178 182 183 181 191 195 199 215 239 247 242 231 266 294 297 270 219 236 242 222 228
123 137 102 116 144 239 292 280 255 260 246 224 193 192 197 186 183 184 184 184 183 179 172 167 171 177 177 176 185 187 191 195 195 186 196 209 230 250 245 252 253 285 299 292 255 259 260 240 246
106 99 105 114 149 158 237 268 232 221 216 208 213 204 198 192 189 186 183 180 169 159 159 162 167 167 167 175 182 182 185 191 189 198 213 217 226 228 234 242 245 256 271 272 260 262 260 249 260
159 164 149 153 202 173 179 263 274 223 212 201 206 200 194 188 187 180 169 159 158 162 165 168 171 171 176 175 171 182 186 188 201 221 230 225 229 232 230 234 243 251 256 252 243 253 255 248 255